Home > Time Zones > World Clock > Weather > Norway > Sola > Past weeks

Flag for Norway Weather past 2 weeks in Sola, Norway

Now
55 °F

Rain. Low clouds.


Feels Like: 53 °F
Forecast: 51 / 54 °F
Wind: 7 mph from Southwest

Location: Stavanger / Sola

Current Time: Oct 24, 2014 at 9:30:53 AM

Latest Report: Oct 24, 2014 at 8:00 AM


Visibility: 2 mi

Pressure: 29.74 "Hg

Humidity: 96%

Dew point: 54 °F

Location of SolaLocation

Historic Weather in Sola — Graph

°F

Sola temperature yesterday

Maximum temperature yesterday: 54 °F (at 4:00 PM)
Minimum temperature yesterday: 47 °F (at 12:00 AM)
Average temperature yesterday: 51 °F

Past Weeks' High & Low Weather Summary

 TemperatureHumidityPressure
High59 °F (Oct 19, 2:00 PM)98% (Oct 12, 9:00 AM)29.98 "Hg (Oct 12, 9:00 AM)
Low34 °F (Oct 17, 2:00 AM)46% (Oct 16, 4:00 PM)29.15 "Hg (Oct 21, 4:00 PM)
Average50 °F85%29.74 "Hg
* Reported Oct 9 8:00 AM — Oct 24 8:00 AM, Sola, Weather by CustomWeather, © 2014

Note: Actual official high and low records may vary slightly from our data, if they occured in-between our weather recording intervals... More about our weather records

Advertising

Sola weather history for previous 24 hours

 ConditionsComfort  
Time TempWeatherWind HumidityBarometerVisibility
8:00 AM
Oct 24
55 °FRain. Low clouds.7 mph96%29.74 "Hg2 mi
7:00 AM55 °FRain. Overcast.8 mph95%29.73 "Hg3 mi
6:00 AM56 °FLow clouds.8 mph94%29.74 "Hg4 mi
5:00 AM55 °FRain showers. Low clouds.8 mph96%29.74 "Hg2 mi
4:00 AM55 °FRain showers. Low clouds.8 mph96%29.75 "Hg2 mi
3:00 AM55 °FLow clouds.10 mph92%29.75 "Hg6 mi
2:00 AM54 °FOvercast.10 mph89%29.77 "Hg9 mi
1:00 AM54 °FOvercast.8 mph93%29.78 "Hg6 mi
12:00 AM53 °FLight rain. Overcast.8 mph96%29.80 "Hg3 mi
11:00 PM
Oct 23
53 °FLight rain. Overcast.9 mph96%29.81 "Hg2 mi
10:00 PM53 °FRain showers. Overcast.9 mph94%29.81 "Hg3 mi
9:00 PM53 °FRain. Overcast.8 mph95%29.81 "Hg3 mi
8:00 PM53 °FRain. Fog.9 mph95%29.82 "Hg3 mi
7:00 PM53 °FLight rain. Overcast.8 mph96%29.82 "Hg4 mi
6:00 PM53 °FLight rain. Low clouds.7 mph96%29.83 "Hg3 mi
5:00 PM53 °FDrizzle. Low clouds.8 mph95%29.84 "Hg3 mi
4:00 PM54 °FRain showers. Low clouds.8 mph94%29.85 "Hg4 mi
3:00 PM53 °FLight rain. Overcast.7 mph95%29.85 "Hg2 mi
2:00 PM53 °FDrizzle. Overcast.7 mph95%29.86 "Hg3 mi
1:00 PM53 °FRain showers. Low clouds.7 mph95%29.86 "Hg3 mi
12:00 PM53 °FOvercast.7 mph96%29.86 "Hg4 mi
11:00 AM53 °FRain showers. Low clouds.7 mph96%29.86 "Hg3 mi
10:00 AM52 °FRain showers. Low clouds.7 mph95%29.85 "Hg4 mi
9:00 AM51 °FRain. Overcast.7 mph95%29.85 "Hg4 mi
Weather by CustomWeather, © 2014

See weather overviewHow to use our weather pages